Location: Wellington
(41.3000°S, 174.7830°E)
Time: 10:36:20
(UTC+13:00)

USA 186 - Pass Details

Date: 24 January 2019
Orbit: 262 x 443 km, 96.9° (Epoch: 04 October)

Event Time Altitude Azimuth Distance (km) Brightness Sun altitude
Rises 21:23:48 0° 161° (SSE) 2,259 5.6 -6.5°
Reaches altitude 10° 21:25:56 10° 151° (SSE) 1,368 4.4 -6.8°
Maximum altitude 21:28:38 34° 83° (E) 600 2.1 -7.2°
Drops below altitude 10° 21:31:09 10° 14° (NNE) 1,268 3.7 -7.6°
Enters shadow 21:32:28 - 7° (N) 1,816 4.6 -7.8°
